This is the latest recevied weather packets stored in our database for station/object N0KWA. If no packets are shown the sender has not sent any weather packets the latest 1 day(s).
| Time | Temp. | Humidity | Pressure | Rain* | Wind** | Luminosity | Snow |
|---|---|---|---|---|---|---|---|
| 1778093751 | 28.33° C | 88% | 1015.1 hPa | 0 mm | - | 46 W/m² | - |
| 1778092837 | 27.78° C | 90% | 1015.4 hPa | 0 mm | - | 98 W/m² | - |
| 1778090715 | 26.67° C | 95% | 1015.6 hPa | 0 mm | - | 33 W/m² | - |
| 1778088896 | 26.11° C | 95% | 1016.2 hPa | 0 mm | - | 28 W/m² | - |
| 1778088587 | 26.11° C | 96% | 1016.1 hPa | 0 mm | - | 29 W/m² | - |
| 1778088285 | 26.11° C | 97% | 1016.2 hPa | 0 mm | - | 34 W/m² | - |
| 1778087376 | 25.56° C | 99% | 1016.3 hPa | 0 mm | - | 26 W/m² | - |
| 1778086765 | 25.56° C | 99% | 1016.1 hPa | 0 mm | - | 16 W/m² | - |
| 1778085242 | 25° C | 99% | 1016.2 hPa | 0 mm | - | 33 W/m² | - |
| 1778084937 | 25° C | 99% | 1016.3 hPa | 0 mm | - | 41 W/m² | - |
| 1778084635 | 25° C | 99% | 1016.2 hPa | 0 mm | - | 28 W/m² | - |
| 1778083727 | 25° C | 99% | 1016.1 hPa | 0 mm | - | 4 W/m² | - |
| 1778081085 | 25° C | 99% | 1015.6 hPa | 0 mm | - | 10 W/m² | - |
| 1778080178 | 25° C | 99% | 1015.6 hPa | 0 mm | - | 20 W/m² | - |
| 1778078360 | 23.89° C | 99% | 1015.8 hPa | 0 mm | - | 16 W/m² | - |
| 1778075940 | 23.89° C | 99% | 1015.3 hPa | 0 mm | - | 16 W/m² | - |
| 1778073515 | 22.78° C | 99% | 1014.9 hPa | 0 mm | - | 7 W/m² | - |
| 1778073211 | 22.78° C | 99% | 1014.9 hPa | 0 mm | - | 0 W/m² | - |
| 1778071093 | 22.22° C | 99% | 1014.9 hPa | 0 mm | - | 5 W/m² | - |
| 1778070488 | 21.67° C | 99% | 1014.6 hPa | 0 mm | - | 1 W/m² | - |
| 1778069277 | 21.67° C | 99% | 1014.6 hPa | 0 mm | - | 0 W/m² | - |
| 1778068672 | 21.67° C | 99% | 1014.5 hPa | 0 mm | - | 0 W/m² | - |
| 1778068370 | 21.67° C | 99% | 1014.6 hPa | 0 mm | - | 0 W/m² | - |
| 1778068068 | 21.67° C | 99% | 1014.4 hPa | 0 mm | - | 0 W/m² | - |
| 1778067765 | 21.67° C | 99% | 1014.4 hPa | 0 mm | - | 0 W/m² | - |
* Rain latest hour (hover to see other rain measurements)
** Current wind speed in m/s (hover to see current wind gust speed)